Hourly Weather Roundup

ASUS45 KTFX 300910

RWRMT 

Montana Regional Weather Roundup

National Weather Service Great Falls MT

200 AM MST WED NOV 30 2022



NOTE: "FAIR" indicates few or no clouds below 12,000 feet with no

significant weather and/or obstructions to visibility.



MTZ001.007-043-301000-

West of the divide

  

CITY           SKY/WX    TMP DP  RH WIND       PRES   REMARKS

Missoula       PTCLDY    13   3  64 E16       29.95F WCI  -3          

Butte          PTCLDY   -10 -15  78 VRB5      29.89F WCI -22          

Anaconda         N/A      3  -2  78 CALM      29.89                   

Deer Lodge       N/A     -4  -8  84 CALM      29.93                   

Hamilton       FAIR       9   5  85 CALM      29.93F                  

Libby            N/A      9   7  92 CALM      29.91                   

Mullan Pass    CLOUDY     9   5  84 VRB3      29.65F                  

Thompson Falls   N/A     16   9  73 NE20      29.93F WCI  -1          

--------------------------------



MTZ008-052.055-301000-

Southwest Montana

  

CITY           SKY/WX    TMP DP  RH WIND       PRES   REMARKS

Bozeman        PTCLDY    -8 -12  83 N3        29.97F                  

Dillon         MOCLDY     0  -2  91 E6        29.91F WCI -12          

Ennis          PTCLDY    16   7  67 S24G30    29.95S WCI  -3          

Three Forks      N/A     -6 -13  71 CALM      29.96F                  

Twin Bridges   FAIR      -4  -8  84 S7        29.98F WCI -18          

--------------------------------



MTZ009-010-012-014-046-048-049-054-301000-

East Slopes and Central Montana

  

CITY           SKY/WX    TMP DP  RH WIND       PRES   REMARKS

Cut Bank       CLOUDY     0  -2  91 SE6       29.90F WCI -12          

Great Falls    CLOUDY     7   0  73 SE6       29.93F WCI  -3          

Helena         CLEAR      1  -6  72 CALM      29.97F                  

Malmstrom AFB  CLOUDY     2  -1  86 NE5       29.95F WCI  -7          

Augusta        FAIR       6   0  78 SE6       29.83F WCI  -5          

Bowmans Corner FAIR       6   0  77 S16       29.80F WCI -13          

Choteau          N/A      1  -4  78 MISG      29.89                   

Fairfield      FAIR      -1  -7  75 W6        29.86F WCI -12          

Power          MOCLDY     2  -5  72 E9        29.88F WCI -12          

Raynesford     FAIR       6  -3  66 E16       29.89F WCI -12          

Ulm            MOCLDY     8   0  70 CALM      29.89F                  

--------------------------------



MTZ011-013-016-021-045-047-050-051-301000-

North Central Montana

  

CITY           SKY/WX    TMP DP  RH WIND       PRES   REMARKS

Havre          CLEAR      2  -3  80 E9        30.09F WCI -13          

Lewistown      CLEAR      3  -5  69 E13       29.95F WCI -14          

Chinook          N/A      0  -2  92 CALM      30.15                   

Denton         FAIR       1  -5  77 SE7       29.98F WCI -12          

Geyser         CLOUDY     4  -3  73 W3        29.93F                  

Grass Range    FAIR       2  -4  75 W5        29.94F WCI  -7          

Judith Gap     FAIR      -1  -6  78 S9        29.92F WCI -17          

N Bar Ranch    FAIR      -2  -9  71 W5        29.96F WCI -12          

Roy            FAIR       1  -5  76 SE9       29.98F WCI -14          

Stanford       FAIR       5  -5  63 CALM      29.90F                  

Winifred       FAIR       3  -3  75 E10       29.97F WCI -13          

--------------------------------



MTZ017.020-022.027-061-062-301000-

Northeast Montana

  

CITY           SKY/WX    TMP DP  RH WIND       PRES   REMARKS

Glasgow        CLEAR      1  -5  75 N5        30.15F WCI  -9          

Culbertson     CLOUDY    10   5  79 W9G15     30.15R WCI  -2          

Glendive       CLEAR      6   1  80 W10       30.16R WCI  -9          

Jordan           N/A      2  -1  88 CALM      30.12F                  

Malta          CLEAR      0  -4  85 CALM      30.15S                  

Plentywood     CLOUDY     7   1  78 NW17G25   30.10R WCI -12          

Poplar         FLURRIES   3   0  85 W12       30.17R WCI -13Sidney         CLOUDY     9   3  77 W8        30.16R WCI  -3          

Wolf Point     CLEAR      2  -5  72 W7        30.19R WCI -11          

--------------------------------



MTZ028.42-056.058-301000-

Southcentral and southeast Montana

  

CITY           SKY/WX    TMP DP  RH WIND       PRES   REMARKS

Baker          MOCLDY     5   1  83 W12       30.10S WCI -11          

Big Timber     CLEAR      5   0  78 CALM      29.97F                  

Billings       CLEAR      8   2  76 SE8       30.04F WCI  -4          

Forsyth          N/A      5  -2  72 CALM      30.15                   

Hardin         PTSUNNY    3   0  85 CALM      30.12S                  

Harlowton      FAIR       1  -6  74 CALM      29.94F                  

Laurel           N/A     10   5  79 CALM      30.06                   

Livingston     CLEAR      1  -6  72 NW15      29.93F WCI -18          

Miles City     CLEAR      4   0  83 SW9       30.16S WCI -10          

--------------------------------



Regional Reports...Dakotas/MN

  

CITY           SKY/WX    TMP DP  RH WIND       PRES   REMARKS

Williston      PTSUNNY    7   1  76 NW14      30.09R WCI -10          

Minot          CLEAR      8   1  73 W21G32    30.02R WCI -12          

Dickinson      CLOUDY     8   2  76 NW23G31   30.04R WCI -13          

Beach          MOCLDY     3   0  85 W16       30.11S WCI -16          

Bowman         CLOUDY     9   3  78 NW14G21   30.08R WCI  -8          

Crosby         FLURRIES   7   1  78 NW20G26   30.10R WCI -13          

Glen Ullin     CLOUDY    10   1  67 NW16G25   30.06R WCI  -7          

Hettinger      MOCLDY     8   2  76 W22G33    30.08R WCI -12          

Tioga          CLOUDY     3   1  92 NW16      30.08R FOG     WCI -16  

Watford City   CLOUDY    10   3  72 NW13G21   30.12R WCI  -5          

Bismarck       FLURRIES  13   5  70 W17G30    30.06R WCI  -4          

Grand Forks    PTCLDY    12   3  67 NW17G29   29.87R WCI  -5          

Fargo          CLOUDY    13   5  70 NW22G30   29.90R WCI  -6          

Buffalo SD       N/A      5   0  79 W10       30.08R WCI -10          

Rapid City     CLEAR     -2  -6  83 CALM      30.12R                  

Intl Falls     LGT SNOW  19  14  81 NW16G30   29.56R WCI   4          

Duluth         CLOUDY    22  15  75 W18G31    29.55R WCI   7          

Minneapolis    FLURRIES  22  14  71 W17G30    29.80R WCI   8          

--------------------------------



Regional Reports...WY/CO/ID/WA/OR

  

CITY           SKY/WX    TMP DP  RH WIND       PRES   REMARKS

Buffalo WY     CLEAR     20  -3  36 W5        29.99F WCI  13          

Cody           CLEAR      2  -2  83 VRB3      30.00F                  

Gillette       CLEAR      5   0  79 S5        30.07S WCI  -4          

Powell         FAIR       5   1  85 SE17      29.97F WCI -14          

Sheridan       CLEAR      6  -1  73 S3        30.05F                  

Yellowstone La   N/A      9   5  84 VRB3      29.93S                  

Boise          CLOUDY    31  19  61 SE13      29.96F WCI  21          

Couer d'Alene  MOCLDY    18  15  88 N10       29.79F WCI   6          

Idaho Falls    CLOUDY    20  12  71 SW5       30.06S WCI  13          

Salmon         MOCLDY    12   8  84 CALM      30.00S                  

Spokane        CLOUDY    25  17  72 SE15      29.73F WCI  13          

Seattle        LGT RAIN  35  33  92 SE13G24   29.43F WCI  26          

Portland       LGT RAIN  47  39  74 S20G30    29.58F                  

--------------------------------



Other Reports

  

CITY           SKY/WX    TMP DP  RH WIND       PRES   REMARKS

Atlanta        LGT RAIN  59  58  96 SE13G22   29.86F                  

Anchorage      PTCLDY     7   1  76 CALM      30.53F                  

Boston         CLOUDY    44  36  73 S8        30.25F                  

Chicago        MOCLDY    27  17  66 W15G32    29.76R WCI  15          

Fairbanks      MOCLDY   -12 -18  74 CALM      30.60F                  

Houston        MOCLDY    71  68  90 NW10      29.99R FOG              

Las Vegas NV   CLEAR     39  1537 SW3       30.09F                  

Phoenix AZ     CLEAR     50  38  63 CALM      30.00S                  

Salt Lake City CLOUDY    28  12  51 SE13      30.09F WCI  17          

San Diego      CLEAR     50  45  83 CALM      30.04R                  

San Francisco  CLEAR     46  36  68 SW5       30.03F                  

Washington Dul LGT RAIN  47  41  80 SE7       30.05F                  

--------------------------------



Regional Reports...Alberta

  

CITY           SKY/WX    TMP DP  RH WIND       PRES   REMARKS

Calgary        CRYSTALS   0  -4  85 SE10      29.91F WCI -17          

Cardston         N/A     -8 -11  84 S3          N/A                   

Crowsnest Pass   N/A      1  -2  85 E1          N/A                   

Del Bonita       N/A     -4  -8  84 S7          N/A  WCI -18          

Fort McMurray  MOCLDY   -15 -18  84 NW5       30.43R WCI -27          

High Level     CLOUDY   -13 -18  77 N15G22    30.52S WCI -36          

Lethbridge     PTCLDY    -4  -9  77 E2        29.96F                  

Medicine Hat   CLEAR     -6  -9  84 E2        30.11F                  

Milk River       N/A      1  -4  78 SE9         N/A  WCI -14          

Onefour          N/A     -8 -11  84 E9          N/A  WCI -25          

Pincher Creek  CLOUDY    -4  -9  77 VRB2      29.86F                  

Raymond          N/A     -4  -8  84 N2          N/A                   

Fort Smith NWT PTCLDY   -26 -33  68 SW2       30.55F                  

--------------------------------



Regional Reports...Saskatchewan

  

CITY           SKY/WX    TMP DP  RH WIND       PRES   REMARKS

Assiniboia       N/A      7   1  78 NW12        N/A  WCI  -9          

Coronach         N/A      7   1  78 NW15        N/A  WCI -11          

Cypress Hills    N/A     -4  -9  77 SW3         N/A                   

Estevan        CLEAR      3   0  85 W14G20    30.06R WCI -15          

Moose Jaw        N/A      1   0  92 W13         N/A  WCI -16          

Prince Albert  FLURRIES  -2  -9  71 N9        30.25R WCI -18          

Regina         MOCLDY     1  -4  78 NW10      30.12R WCI -14          

Rockglen         N/A      3   0  85 NW13G22     N/A  WCI -14          

Saskatoon      CRYSTALS   0  -4  85 N8        30.18R WCI -15          

Swift Current  FLURRIES   3   0  85 NW10      30.07S WCI -12          

Uranium City     N/A    -18 -24  76 E5          N/A  WCI -31          

Val Marie        N/A     -8